H1 CPF 2 NER 2021 6 24 9 175 01 glonass105 H2 0705202 9105 32276 2021 6 24 0 0 0 2021 6 27 23 45 0 900 1 1 0 0 0 1 H9 10 0 59389 0.00000 0 11247123.625 -3417064.274 -22643867.909 10 0 59389 900.00000 0 10598599.813 -658991.185 -23194860.418 10 0 59389 1800.00000 0 10157543.929 2180663.135 -23295529.670 10 0 59389 2700.00000 0 9936613.760 5030794.015 -22943763.761 10 0 59389 3600.00000 0 9935721.603 7819272.537 -22146234.492 10 0 59389 4500.00000 0 10142079.792 10475710.314 -20918280.541 10 0 59389 5400.00000 0 10530797.828 12934159.451 -19283622.158 10 0 59389 6300.00000 0 11066007.090 15135635.762 -17273911.747 10 0 59389 7200.00000 0 11702466.518 17030360.066 -14928127.991 10 0 59389 8100.00000 0 12387582.134 18579623.883 -12291824.352 10 0 59389 9000.00000 0 13063755.368 19757201.255 -9416245.802 10 0 59389 9900.00000 0 13670960.789 20550247.122 -6357330.745 10 0 59389 10800.00000 0 14149443.620 20959644.428 -3174617.577 10 0 59389 11700.00000 0 14442421.862 20999785.384 69922.330 10 0 59389 12600.00000 0 14498677.347 20697796.418 3313101.560 10 0 59389 13500.00000 0 14274924.506 20092240.229 6491758.652 10 0 59389 14400.00000 0 13737855.054 19231350.722 9543999.700 10 0 59389 15300.00000 0 12865770.645 18170876.620 12410413.940 10 0 59389 16200.00000 0 11649733.294 16971626.245 15035238.520 10 0 59389 17100.00000 0 10094184.015 15696818.472 17367448.862 10 0 59389 18000.00000 0 8217003.038 14409352.912 19361752.783 10 0 59389 18900.00000 0 6049008.709 13169115.284 20979468.920 10 0 59389 19800.00000 0 3632915.970 12030431.985 22189272.695 10 0 59389 20700.00000 0 1021798.148 11039780.977 22967795.916 10 0 59389 21600.00000 0 -1722883.636 10233854.725 23300069.343 10 0 59389 22500.00000 0 -4533601.251 9638055.598 23179800.723 10 0 59389 23400.00000 0 -7339333.996 9265485.623 22609484.047 10 0 59389 24300.00000 0 -10068290.052 9116471.471 21600339.004 10 0 59389 25200.00000 0 -12650662.547 9178643.017 20172082.700 10 0 59389 26100.00000 0 -15021306.644 9427560.712 18352538.778 10 0 59389 27000.00000 0 -17122227.656 9827864.115 16177091.947 10 0 59389 27900.00000 0 -18904778.225 10334892.353 13687998.625 10 0 59389 28800.00000 0 -20331474.588 10896707.744 10933567.048 10 0 59389 29700.00000 0 -21377357.905 11456437.122 7967222.492 10 0 59389 30600.00000 0 -22030845.387 11954832.278 4846475.315 10 0 59389 31500.00000 0 -22294036.964 12332941.864 1631811.462 10 0 59389 32400.00000 0 -22182465.876 12534782.424 -1614473.562 10 0 59389 33300.00000 0 -21724304.452 12509896.309 -4829475.159 10 0 59389 34200.00000 0 -20959058.935 12215688.830 -7950891.660 10 0 59389 35100.00000 0 -19935808.345 11619446.157 -10918224.896 10 0 59389 36000.00000 0 -18711061.240 10699948.688 -13673946.543 10 0 59389 36900.00000 0 -17346320.056 9448611.367 -16164607.994 10 0 59389 37800.00000 0 -15905454.770 7870101.993 -18341872.742 10 0 59389 38700.00000 0 -14451995.496 5982410.144 -20163451.695 10 0 59389 39600.00000 0 -13046456.982 3816362.117 -21593923.584 10 0 59389 40500.00000 0 -11743806.614 1414600.185 -22605424.823 10 0 59389 41400.00000 0 -10591181.624 -1169933.432 -23178195.544 10 0 59389 42300.00000 0 -9625950.945 -3875946.672 -23300971.002 10 0 59389 43200.00000 0 -8874202.903 -6636102.712 -22971210.424 10 0 59389 44100.00000 0 -8349722.331 -9379585.875 -22195158.211 10 0 59389 45000.00000 0 -8053500.433 -12034822.952 -20987735.404 10 0 59389 45900.00000 0 -7973798.497 -14532247.776 -19372262.507 10 0 59389 46800.00000 0 -8086763.358 -16806994.531 -17380017.906 10 0 59389 47700.00000 0 -8357569.272 -18801407.640 -15049639.351 10 0 59389 48600.00000 0 -8742038.470 -20467263.338 -12426379.221 10 0 59389 49500.00000 0 -9188672.129 -21767609.659 -9561227.264 10 0 59389 50400.00000 0 -9641005.755 -22678147.203 -6509917.647 10 0 59389 51300.00000 0 -10040188.789 -23188092.317 -3331839.653 10 0 59389 52200.00000 0 -10327678.235 -23300486.105 -88873.685 10 0 59389 53100.00000 0 -10447930.999 -23031936.216 3155823.791 10 0 59389 54000.00000 0 -10350979.347 -22411802.633 6339061.596 10 0 59389 54900.00000 0 -9994778.807 -21480862.476 9398856.021 10 0 59389 55800.00000 0 -9347227.575 -20289511.131 12275648.209 10 0 59389 56700.00000 0 -8387770.618 -18895576.849 14913471.898 10 0 59389 57600.00000 0 -7108519.539 -17361842.229 17261047.868 10 0 59389 58500.00000 0 -5514840.176 -15753378.308 19272783.158 10 0 59389 59400.00000 0 -3625382.639 -14134804.509 20909655.529 10 0 59389 60300.00000 0 -1471552.210 -12567590.277 22139966.212 10 0 59389 61200.00000 0 903556.752 -11107512.018 22939946.955 10 0 59389 62100.00000 0 3446719.303 -9802371.666 23294210.492 10 0 59389 63000.00000 0 6096565.794 -8690071.729 23196036.806 10 0 59389 63900.00000 0 8785912.334 -7797126.217 22647490.742 10 0 59389 64800.00000 0 11444339.169 -7137668.195 21659369.791 10 0 59389 65700.00000 0 14000910.219 -6712993.753 20250983.963 10 0 59389 66600.00000 0 16386921.368 -6511659.689 18449772.700 10 0 59389 67500.00000 0 18538564.281 -6510129.076 16290766.733 10 0 59389 68400.00000 0 20399396.087 -6673936.158 13815905.420 10 0 59389 69300.00000 0 21922513.420 -6959320.481 11073222.835 10 0 59389 70200.00000 0 23072341.563 -7315260.776 8115918.138 10 0 59389 71100.00000 0 23825965.456 -7685822.520 5001327.846 10 0 59389 72000.00000 0 24173948.100 -8012720.191 1789819.599 10 0 59389 72900.00000 0 24120603.236 -8237986.261 -1456371.642 10 0 59389 73800.00000 0 23683711.647 -8306634.606 -4674342.923 10 0 59389 74700.00000 0 22893693.458 -8169206.178 -7801735.255 10 0 59389 75600.00000 0 21792271.361 -7784089.698 -10777935.243 10 0 59389 76500.00000 0 20430680.699 -7119519.381 -13545243.595 10 0 59389 77400.00000 0 18867501.125 -6155165.146 -16049988.203 10 0 59389 78300.00000 0 17166200.180 -4883247.587 -18243560.771 10 0 59389 79200.00000 0 15392491.004 -3309129.608 -20083357.278 10 0 59389 80100.00000 0 13611614.119 -1451358.394 -21533604.395 10 0 59389 81000.00000 0 11885656.316 658845.982 -22566056.050 10 0 59389 81900.00000 0 10271018.158 2978636.096 -23160546.784 10 0 59389 82800.00000 0 8816135.565 5455075.318 -23305390.926 10 0 59389 83700.00000 0 7559550.466 8027106.646 -22997619.554 10 0 59389 84600.00000 0 6528411.096 10627872.190 -22243049.946 10 0 59389 85500.00000 0 5737464.860 13187288.285 -21056185.342 10 0 59390 0.00000 0 5188586.130 15634770.271 -19459945.960 10 0 59390 900.00000 0 4870859.273 17901994.181 -17485235.057 10 0 59390 1800.00000 0 4761213.184 19925580.634 -15170348.094 10 0 59390 2700.00000 0 4825581.814 21649588.064 -12560234.548 10 0 59390 3600.00000 0 5020540.646 23027711.697 -9705626.776 10 0 59390 4500.00000 0 5295350.587 24025094.471 -6662052.188 10 0 59390 5400.00000 0 5594321.884 24619673.748 -3488748.133 10 0 59390 6300.00000 0 5859397.184 24803006.471 -247500.985 10 0 59390 7200.00000 0 6032843.079 24580537.619 2998566.971 10 0 59390 8100.00000 0 6059934.597 23971300.622 6186238.148 10 0 59390 9000.00000 0 5891517.262 23007062.613 9253442.331 10 0 59390 9900.00000 0 5486336.611 21730951.223 12140475.766 10 0 59390 10800.00000 0 4813035.058 20195621.724 14791171.807 10 0 59390 11700.00000 0 3851730.389 18461042.857 17153999.399 10 0 59390 12600.00000 0 2595108.298 16591995.714 19183067.359 10 0 59390 13500.00000 0 1048982.191 14655391.890 20839014.808 10 0 59390 14400.00000 0 -767703.692 12717524.240 22089770.693 10 0 59390 15300.00000 0 -2823428.119 10841365.987 22911168.215 10 0 59390 16200.00000 0 -5075180.522 9084031.171 23287403.162 10 0 59390 17100.00000 0 -7470037.000 7494502.038 23211328.340 10 0 59390 18000.00000 0 -9947158.847 6111717.357 22684579.505 10 0 59390 18900.00000 0 -12440130.444 4963099.985 21717531.447 10 0 59390 19800.00000 0 -14879539.532 4063583.346 20329085.986 10 0 59390 20700.00000 0 -17195692.872 3415175.610 18546296.726 10 0 59390 21600.00000 0 -19321355.089 3007077.728 16403838.250 10 0 59390 22500.00000 0 -21194397.600 2816348.548 13943330.264 10 0 59390 23400.00000 0 -22760248.281 2809087.505 11212529.747 10 0 59390 24300.00000 0 -23974040.932 2942083.974 8264406.587 10 0 59390 25200.00000 0 -24802375.947 3164863.030 5156120.200 10 0 59390 26100.00000 0 -25224619.660 3422041.020 1947916.648 10 0 59390 27000.00000 0 -25233688.935 3655891.450 -1298032.875 10 0 59390 27900.00000 0 -24836288.807 3809013.037 -4518830.164 10 0 59390 28800.00000 0 -24052593.637 3826987.505 -7652061.889 10 0 59390 29700.00000 0 -22915385.263 3660915.140 -10637002.269 10 0 59390 30600.00000 0 -21468684.076 3269721.150 -13415783.693 10 0 59390 31500.00000 0 -19765929.965 2622135.430 -15934512.986 10 0 59390 32400.00000 0 -17867788.674 1698261.790 -18144312.178 10 0 59390 33300.00000 0 -15839674.533 490669.726 -20002264.077 10 0 59390 34200.00000 0 -13749092.335 -995038.408 -21472244.582 10 0 59390 35100.00000 0 -11662908.521 -2740210.306 -22525625.922 10 0 59390 36000.00000 0 -9644664.778 -4713679.400 -23141837.295 10 0 59390 36900.00000 0 -7752045.558 -6872833.048 -23308771.821 10 0 59390 37800.00000 0 -6034604.647 -9165170.828 -23023031.630 10 0 59390 38700.00000 0 -4531845.348 -11530290.030 -22290005.640 10 0 59390 39600.00000 0 -3271734.376 -13902217.325 -21123777.673 10 0 59390 40500.00000 0 -2269711.572 -16211990.858 -19546865.638 10 0 59390 41400.00000 0 -1528236.982 -18390386.072 -17589795.700 10 0 59390 42300.00000 0 -1036894.479 -20370671.885 -15290518.629 10 0 59390 43200.00000 0 -773047.574 -22091282.094 -12693678.672 10 0 59390 44100.00000 0 -703019.741 -23498289.789 -9849748.443 10 0 59390 45000.00000 0 -783749.172 -24547580.299 -6814046.326 10 0 59390 45900.00000 0 -964847.438 -25206630.629 -3645655.542 10 0 59390 46800.00000 0 -1190974.069 -25455819.682 -406266.368 10 0 59390 47700.00000 0 -1404425.295 -25289213.341 2841035.062 10 0 59390 48600.00000 0 -1547825.801 -24714790.907 6033006.652 10 0 59390 49500.00000 0 -1566807.809 -23754103.174 9107493.523 10 0 59390 50400.00000 0 -1412562.343 -22441376.804 12004648.839 10 0 59390 51300.00000 0 -1044153.079 -20822103.330 14668107.346 10 0 59390 52200.00000 0 -430493.495 -18951173.019 17046087.865 10 0 59390 53100.00000 0 448097.225 -16890633.102 19092402.584 10 0 59390 54000.00000 0 1598826.020 -14707165.515 20767353.426 10 0 59390 54900.00000 0 3015890.945 -12469390.715 22038498.279 10 0 59390 55800.00000 0 4680501.991 -10245111.055 22881272.775 10 0 59390 56700.00000 0 6561456.931 -8098609.072 23279456.458 10 0 59390 57600.00000 0 8616247.985 -6088113.100 23225475.381 10 0 59390 58500.00000 0 10792652.950 -4263535.166 22720536.355 10 0 59390 59400.00000 0 13030744.337 -2664574.104 21774591.354 10 0 59390 60300.00000 0 15265232.909 -1319261.230 20406133.666 10 0 59390 61200.00000 0 17428048.166 -243007.323 18641830.470 10 0 59390 62100.00000 0 19451048.763 561811.481 16515999.413 10 0 59390 63000.00000 0 21268750.627 1105713.684 14069939.511 10 0 59390 63900.00000 0 22820959.728 1411426.038 11351129.375 10 0 59390 64800.00000 0 24055200.634 1512681.259 8412308.073 10 0 59390 65700.00000 0 24928840.325 1452551.579 5310456.083 10 0 59390 66600.00000 0 25410819.343 1281389.108 2105695.770 10 0 59390 67500.00000 0 25482918.591 1054460.251 -1139867.812 10 0 59390 68400.00000 0 25140509.324 829374.105 -4363343.792 10 0 59390 69300.00000 0 24392755.168 663413.245 -7502267.217 10 0 59390 70200.00000 0 23262257.783 610879.410 -10495802.668 10 0 59390 71100.00000 0 21784160.687 720565.927 -13285916.935 10 0 59390 72000.00000 0 20004748.290 1033463.504 -15818498.381 10 0 59390 72900.00000 0 17979597.970 1580796.271 -18044401.844 10 0 59390 73800.00000 0 15771361.504 2382471.411 -19920399.255 10 0 59390 74700.00000 0 13447267.517 3446008.446 -21410017.855 10 0 59390 75600.00000 0 11076448.111 4765994.525 -22484250.087 10 0 59390 76500.00000 0 8727200.096 6324090.259 -23122121.459 10 0 59390 77400.00000 0 6464294.142 8089587.758 -23311105.252 10 0 59390 78300.00000 0 4346443.203 10020499.659 -23047375.666 10 0 59390 79200.00000 0 2424035.136 12065135.719 -22335893.874 10 0 59390 80100.00000 0 737223.776 14164102.998 -21190324.438 10 0 59390 81000.00000 0 -685542.070 16252647.725 -19632782.696 10 0 59390 81900.00000 0 -1828490.302 18263242.236 -17693416.846 10 0 59390 82800.00000 0 -2688957.156 20128309.478 -15409831.768 10 0 59390 83700.00000 0 -3277260.708 21782971.264 -12826364.790 10 0 59390 84600.00000 0 -3616021.740 23167704.876 -9993226.698 10 0 59390 85500.00000 0 -3738960.831 24230795.790 -6965524.402 10 0 59391 0.00000 0 -3689223.049 24930482.624 -3802184.341 10 0 59391 900.00000 0 -3517301.986 25236702.655 -564797.584 10 0 59391 1800.00000 0 -3278651.857 25132364.370 2683588.969 10 0 59391 2700.00000 0 -3031090.725 24614090.792 5879711.938 10 0 59391 3600.00000 0 -2832105.894 23692403.693 8961335.029 10 0 59391 4500.00000 0 -2736177.697 22391339.307 11868471.513 10 0 59391 5400.00000 0 -2792236.422 20747512.584 14544560.598 10 0 59391 6300.00000 0 -3041361.492 18808669.649 16937573.871 10 0 59391 7200.00000 0 -3514821.283 16631790.125 19001029.574 10 0 59391 8100.00000 0 -4232537.155 14280819.791 20694894.842 10 0 59391 9000.00000 0 -5202036.971 11824129.319 21986358.614 10 0 59391 9900.00000 0 -6417942.277 9331806.073 22850460.695 10 0 59391 10800.00000 0 -7862010.677 6872892.272 23270565.713 10 0 59391 11700.00000 0 -9503731.451 4512684.540 23238673.819 10 0 59391 12600.00000 0 -11301449.190 2310206.769 22755563.197 10 0 59391 13500.00000 0 -13203968.284 315960.365 21830762.751 10 0 59391 14400.00000 0 -15152571.161 -1429956.023 20482356.376 10 0 59391 15300.00000 0 -17083366.033 -2899280.855 18736623.376 10 0 59391 16200.00000 0 -18929866.447 -4076520.464 16627522.443 10 0 59391 17100.00000 0 -20625695.433 -4959339.617 14196029.394 10 0 59391 18000.00000 0 -22107301.882 -5558397.609 11489341.540 10 0 59391 18900.00000 0 -23316576.385 -5896638.680 8559963.901 10 0 59391 19800.00000 0 -24203257.957 -6008068.115 5464694.599 10 0 59391 20700.00000 0 -24727031.576 -5936066.600 2263528.791 10 0 59391 21600.00000 0 -24859229.392 -5731314.600 -981498.114 10 0 59391 22500.00000 0 -24584064.728 -5449414.608 -4207506.015 10 0 59391 23400.00000 0 -23899347.372 -5148311.622 -7351981.658 10 0 59391 24300.00000 0 -22816650.103 -4885620.596 -10353983.162 10 0 59391 25200.00000 0 -21360919.119 -4715973.414 -13155314.697 10 0 59391 26100.00000 0 -19569544.032 -4688497.136 -15701648.912 10 0 59391 27000.00000 0 -17490925.454 -4844529.809 -17943575.866 10 0 59391 27900.00000 0 -15182598.917 -5215670.289 -19837558.625 10 0 59391 28800.00000 0 -12708992.276 -5822244.700 -21346777.294 10 0 59391 29700.00000 0 -10138908.836 -6672254.888 -22441845.449 10 0 59391 30600.00000 0 -7542839.755 -7760854.357 -23101385.225 10 0 59391 31500.00000 0 -4990216.592 -9070375.219 -23312449.730 10 0 59391 32400.00000 0 -2546717.282 -10570906.903 -23070784.294 10 0 59391 33300.00000 0 -271736.888 -12221404.350 -22380920.858 10 0 59391 34200.00000 0 1783872.023 -13971281.175 -21256102.779 10 0 59391 35100.00000 0 3579695.611 -15762422.837 -19718040.506 10 0 59391 36000.00000 0 5087212.612 -17531536.941 -17796501.668 10 0 59391 36900.00000 0 6290745.080 -19212743.077 -15528742.470 10 0 59391 37800.00000 0 7187866.219 -20740294.074 -12958790.411 10 0 59391 38700.00000 0 7789248.377 -22051314.355 -10136591.519 10 0 59391 39600.00000 0 8117957.754 -23088439.743 -7117038.327 10 0 59391 40500.00000 0 8208226.110 -23802246.736 -3958897.535 10 0 59391 41400.00000 0 8103752.101 -24153367.816 -723658.582 10 0 59391 42300.00000 0 7855605.099 -24114202.372 2525673.493 10 0 59391 43200.00000 0 7519821.568 -23670149.967 5725816.351 10 0 59391 44100.00000 0 7154797.325 -22820313.000 8814454.386 10 0 59391 45000.00000 0 6818587.757 -21577638.545 11731462.851 10 0 59391 45900.00000 0 6566231.950 -19968493.155 14420087.061 10 0 59391 46800.00000 0 6447215.425 -18031688.623 16828052.765 10 0 59391 47700.00000 0 6503179.955 -15817000.087 18908585.381 10 0 59391 48600.00000 0 6765978.061 -13383239.282 20621318.104 10 0 59391 49500.00000 0 7256154.746 -10795964.207 21933071.455 10 0 59391 50400.00000 0 7981920.517 -8124921.634 22818489.650 10 0 59391 51300.00000 0 8938658.776 -5441329.479 23260522.337 10 0 59391 52200.00000 0 10108987.910 -2815112.234 23250743.409 10 0 59391 53100.00000 0 11463375.011 -312204.207 22789501.827 10 0 59391 54000.00000 0 12961275.072 2007968.219 21885902.601 10 0 59391 54900.00000 0 14552747.667 4094721.948 20557619.239 10 0 59391 55800.00000 0 16180483.251 5907978.819 18830542.027 10 0 59391 56700.00000 0 17782154.351 7419678.072 16738269.432 10 0 59391 57600.00000 0 19292993.572 8614682.940 14321452.684 10 0 59391 58500.00000 0 20648490.895 9491145.628 11627006.290 10 0 59391 59400.00000 0 21787097.967 10060317.479 8707199.582 10 0 59391 60300.00000 0 22652826.702 10345814.074 5618646.549 10 0 59391 61200.00000 0 23197633.925 10382367.515 2421213.222 10 0 59391 62100.00000 0 23383492.597 10214119.403 -823136.684 10 0 59391 63000.00000 0 23184063.126 9892527.022 -4051535.986 10 0 59391 63900.00000 0 22585894.808 9473971.222 -7201425.315 10 0 59391 64800.00000 0 21589106.876 9017166.855 -10211758.514 10 0 59391 65700.00000 0 20207520.172 8580484.800 -13024179.262 10 0 59391 66600.00000 0 18468233.211 8219298.205 -15584146.514 10 0 59391 67500.00000 0 16410659.350 7983464.604 -17841987.473 10 0 59391 68400.00000 0 14085064.045 7915049.878 -19753858.143 10 0 59391 69300.00000 0 11550661.890 8046390.049 -21282593.182 10 0 59391 70200.00000 0 8873351.249 8398572.879 -22398428.891 10 0 59391 71100.00000 0 6123179.332 8980403.915 -23079585.480 10 0 59391 72000.00000 0 3371641.850 9787901.539 -23312697.155 10 0 59391 72900.00000 0 688928.300 10804343.675 -23093081.403 10 0 59391 73800.00000 0 -1858773.616 12000865.827 -22424841.623 10 0 59391 74700.00000 0 -4211802.954 13337587.105 -21320800.253 10 0 59391 75600.00000 0 -6319275.335 14765218.650 -19802262.673 10 0 59391 76500.00000 0 -8140964.085 16227088.452 -17898615.297 10 0 59391 77400.00000 0 -9648734.221 17661498.599 -15646764.528 10 0 59391 78300.00000 0 -10827469.368 19004316.578 -13090426.491 10 0 59391 79200.00000 0 -11675452.783 20191691.793 -10279280.524 10 0 59391 80100.00000 0 -12204186.605 21162782.550 -7268002.550 10 0 59391 81000.00000 0 -12437657.278 21862377.789 -4115197.108 10 0 59391 81900.00000 0 -12411078.783 22243301.882 -882249.212 10 0 59391 82800.00000 0 -12169167.600 22268499.668 2367880.722 10 0 59391 83700.00000 0 -11764023.607 21912712.368 5571894.292 10 0 59391 84600.00000 0 -11252707.994 21163672.420 8667399.541 10 0 59391 85500.00000 0 -10694622.330 20022765.862 11594136.670 10 0 59392 0.00000 0 -10148801.264 18505133.770 14295159.973 10 0 59392 900.00000 0 -9671235.206 16639207.780 16717952.297 10 0 59392 1800.00000 0 -9312336.473 14465700.396 18815448.893 10 0 59392 2700.00000 0 -9114658.513 12036091.140 20546951.500 10 0 59392 3600.00000 0 -9110963.043 9410673.844 21878914.474 10 0 59392 4500.00000 0 -9322717.990 6656246.389 22785588.367 10 0 59392 5400.00000 0 -9759088.560 3843539.893 23249509.388 10 0 59392 6300.00000 0 -10416463.508 1044494.437 23261826.281 10 0 59392 7200.00000 0 -11278535.764 -1670505.530 22822459.381 10 0 59392 8100.00000 0 -12316933.267 -4235321.863 21940089.861 10 0 59392 9000.00000 0 -13492372.949 -6590568.812 20631980.323 10 0 59392 9900.00000 0 -14756288.923 -8685831.736 18923630.933 10 0 59392 10800.00000 0 -16052866.383 -10481508.044 16848278.271 10 0 59392 11700.00000 0 -17321395.936 -11950195.727 14446246.814 10 0 59392 12600.00000 0 -18498849.803 -13077573.606 11764165.659 10 0 59392 13500.00000 0 -19522572.244 -13862738.642 8854065.494 10 0 59392 14400.00000 0 -20332971.789 -14317988.042 5772372.968 10 0 59392 15300.00000 0 -20876102.769 -14468056.844 2578821.614 10 0 59392 16200.00000 0 -21106028.248 -14348844.261 -664699.996 10 0 59392 17100.00000 0 -20986865.422 -14005683.152 -3895341.061 10 0 59392 18000.00000 0 -20494427.721 -13491225.927 -7050499.539 10 0 59392 18900.00000 0 -19617394.560 -12863036.051 -10069028.352 10 0 59392 19800.00000 0 -18357959.157 -12180986.510 -12892413.926 10 0 59392 20700.00000 0 -16731926.556 -11504574.540 -15465904.573 10 0 59392 21600.00000 0 -14768256.631 -10890265.401 -17739567.414 10 0 59392 22500.00000 0 -12508069.838 -10388976.695 -19669253.810 10 0 59392 23400.00000 0 -10003155.693 -10043808.946 -21217454.910 10 0 59392 24300.00000 0 -7314044.476 -9888117.920 -22354031.128 10 0 59392 25200.00000 0 -4507720.743 -9944010.046 -23056801.504 10 0 59392 26100.00000 0 -1655072.135 -10221324.812 -23311981.447 10 0 59392 27000.00000 0 1171821.916 -10717147.822 -23114460.058 10 0 59392 27900.00000 0 3902450.232 -11415876.199 -22467911.063 10 0 59392 28800.00000 0 6470564.829 -12289834.962 -21384734.323 10 0 59392 29700.00000 0 8816699.321 -13300419.955 -19885828.053 10 0 59392 30600.00000 0 10890406.382 -14399720.627 -18000194.961 10 0 59392 31500.00000 0 12652120.916 -15532555.544 -15764388.862 10 0 59392 32400.00000 0 14074571.190 -16638835.686 -13221811.448 10 0 59392 33300.00000 0 15143678.729 -17656156.324 -10421872.119 10 0 59392 34200.00000 0 15858909.158 -18522507.919 -7419026.795 10 0 59392 35100.00000 0 16233059.416 -19178991.044 -4271714.405 10 0 59392 36000.00000 0 16291490.691 -19572419.581 -1041212.095 10 0 59392 36900.00000 0 16070840.095 -19657700.872 2209567.652 10 0 59392 37800.00000 0 15617266.534 -19399890.798 5417313.486 10 0 59392 38700.00000 0 14984306.217 -18775835.505 8519559.901 10 0 59392 39600.00000 0 14230429.970 -17775329.214 11455914.495 10 0 59392 40500.00000 0 13416407.247 -16401738.277 14169242.671 10 0 59392 41400.00000 0 12602589.805 -14672064.527 16606785.770 10 0 59392 42300.00000 0 11846231.084 -12616444.985 18721190.093 10 0 59392 43200.00000 0 11198955.458 -10277108.928 20471426.644 10 0 59392 44100.00000 0 10704484.625 -7706836.157 21823583.872 10 0 59392 45000.00000 0 10396717.034 -4966981.343 22751518.526 10 0 59392 45900.00000 0 10298240.837 -2125147.120 23237352.860 10 0 59392 46800.00000 0 10419342.220 747397.057 23271809.607 10 0 59392 47700.00000 0 10757549.817 3578442.943 22854379.313 10 0 59392 48600.00000 0 11297733.290 6297605.570 21993317.905 10 0 59392 49500.00000 0 12012750.901 8839005.517 20705475.461 10 0 59392 50400.00000 0 12864617.978 11143761.039 19015960.260 10 0 59392 51300.00000 0 13806146.560 13162188.112 16957645.119 10 0 59392 52200.00000 0 14782986.985 14855618.655 14570525.793 10 0 59392 53100.00000 0 15735985.531 16197763.016 11900943.940 10 0 59392 54000.00000 0 16603759.198 17175561.901 9000689.532 10 0 59392 54900.00000 0 17325379.703 17789493.946 5925999.749 10 0 59392 55800.00000 0 17843054.227 18053327.642 2736473.490 10 0 59392 56700.00000 0 18104690.617 17993329.385 -506077.968 10 0 59392 57600.00000 0 18066239.448 17646961.860 -3738822.312 10 0 59392 58500.00000 0 17693714.620 17061128.061 -6899116.856 10 0 59392 59400.00000 0 16964807.476 16290035.104 -9925715.510 10 0 59392 60300.00000 0 15870026.203 15392767.646 -12759949.194 10 0 59392 61200.00000 0 14413311.996 14430672.792 -15346857.165 10 0 59392 62100.00000 0 12612105.087 13464666.077 -17636247.897 10 0 59392 63000.00000 0 10496856.416 12552571.386 -19583669.397 10 0 59392 63900.00000 0 8110003.801 11746606.254 -21151270.505 10 0 59392 64800.00000 0 5504453.428 11091117.897 -22308536.842 10 0 59392 65700.00000 0 2741628.010 10620665.036 -23032887.289 10 0 59392 66600.00000 0 -110838.962 10358526.233 -23310119.336 10 0 59392 67500.00000 0 -2981668.804 10315697.841 -23134694.387 10 0 59392 68400.00000 0 -5798657.934 10490424.406 -22509856.903 10 0 59392 69300.00000 0 -8491440.978 10868282.186 -21447584.218 10 0 59392 70200.00000 0 -10994182.668 11422813.394 -19968367.011 10 0 59392 71100.00000 0 -13248087.045 12116685.585 -18100823.482 10 0 59392 72000.00000 0 -15203619.481 12903328.404 -15881153.615 10 0 59392 72900.00000 0 -16822348.757 13728979.425 -13352443.069 10 0 59392 73800.00000 0 -18078331.972 14535053.227 -10563829.388 10 0 59392 74700.00000 0 -18958983.924 15260733.574 -7569546.351 10 0 59392 75600.00000 0 -19465394.401 15845678.671 -4427864.973 10 0 59392 76500.00000 0 -19612080.120 16232724.160 -1199952.119 10 0 59392 77400.00000 0 -19426182.108 16370468.210 2051330.156 10 0 59392 78300.00000 0 -18946143.177 16215627.857 5262660.120 10 0 59392 79200.00000 0 -18219922.363 15735065.366 8371501.341 10 0 59392 80100.00000 0 -17302823.110 14907397.496 11317331.465 10 0 59392 81000.00000 0 -16255028.447 13724118.463 14042829.622 10 0 59392 81900.00000 0 -15138948.748 12190188.266 16494998.363 10 0 59392 82800.00000 0 -14016495.403 10324061.032 18626197.529 10 0 59392 83700.00000 0 -12946396.452 8157151.856 20395069.735 10 0 59392 84600.00000 0 -11981667.933 5732764.422 21767339.658 10 0 59392 85500.00000 0 -11167347.592 3104524.474 22716472.061 99